Regional Weather Roundup
Issued by NWS State College, PA

Home | Current Version | Previous Version | Graphics & Text | Print | Product List | Glossary Off
Versions: 1 2 3 4 5 6 7 8 9 10 11 12 13 14 15 16 17 18 19 20 21 22 23 24 25 26 27 28 29 30 31 32 33 34 35 36 37 38 39 40 41 42 43 44 45 46 47 48 49 50

000
ASUS41 KCTP 312303
RWRCTP

REGIONAL WEATHER ROUNDUP
NATIONAL WEATHER SERVICE STATE COLLEGE PA
700 PM EDT THU JUL 31 2014

Note: "fair" indicates few or no clouds below 12,000 feet with no
significant weather and/or obstructions to visibility.

* = STATION THAT DOES NOT REPORT PRECIPITATION /E.G. RAIN...SNOW...ETC/
    THUNDER OR FOG.

PAZ002>004-007>009-013>016-020>023-029>032-010000-
WESTERN PENNSYLVANIA

CITY           SKY/WX    TMP DP  RH WIND       PRES   REMARKS
ERIE           SUNNY     74  50  42 SW5       30.07F
MEADVILLE      SUNNY     72  50  45 W3        30.10S
FRANKLIN*      SUNNY     72  54  53 W7        30.12S
NEW CASTLE     FAIR      77  61  57 CALM      30.10S
BEAVER COUNTY  SUNNY     75  59  57 W5        30.10S
BUTLER*        SUNNY     73  61  64 W6        30.13R
PITTSBURGH INT MOSUNNY   76  58  53 W5        30.10R
PITTSBURGH     CLOUDY    75  59  57 SW7       30.10R
INDIANA*       CLOUDY    72  64  78 VRB7      30.16R
LATROBE        MOSUNNY   75  63  64 SW5       30.12R
WASHINGTON CO* SUNNY     73  61  64 SW5       30.12R
$$

PAZ004>006-010>012-017>019-024>028-033>037-041-042-045-046-049>053-010000-
CENTRAL PENNSYLVANIA

CITY           SKY/WX    TMP DP  RH WIND       PRES   REMARKS
BRADFORD       MOSUNNY   70  49  47 SW5       30.12R
DUBOIS         MOSUNNY   72  60  66 SW7       30.12R
CLEARFIELD     MOSUNNY   72  59  63 SW5       30.12S
JOHNSTOWN      PTSUNNY   71  56  58 SW7       30.15R
ALTOONA        MOSUNNY   75  58  55 SW5       30.13R
STATE COLLEGE  PTSUNNY   68  61  77 NW6       30.11R
WILLIAMSPORT   SUNNY     77  61  57 S6        30.07R
SELINSGROVE    MOSUNNY   71  65  81 VRB3      30.10R
FT INDIANTOWN  MOSUNNY   79  60  51 SW6       30.10R
CAPITAL CITY   MOSUNNY   80  59  48 S5        30.08S
HARRISBURG     MOSUNNY   80  63  55 SW3       30.08R
YORK           SUNNY     80  59  48 SW5       30.09S
$$

PAZ038>040-043-044-047-048-054-055-060>062-067>071-010000-
EASTERN PENNSYLVANIA

CITY           SKY/WX    TMP DP  RH WIND       PRES   REMARKS
SCRANTON       SUNNY     78  55  44 SW8       30.10S
MOUNT POCONO   CLOUDY    70  57  63 SW7       30.16R
ALLENTOWN      MOSUNNY   77  60  55 NW5       30.10S
QUAKERTOWN*    PTCLDY    77  63  61 CALM      30.11S
READING        SUNNY     79  63  57 N8        30.08S
LANCASTER      MOSUNNY   78  58  49 SW8       30.09S
COATESVILLE      N/A     77  63  61 CALM      30.12R
POTTSTOWN      MOSUNNY   80  61  52 SW6       30.11R
BLUE BELL      SUNNY     81  61  50 SW6       30.09R
DOYLESTOWN     MOSUNNY   80  59  48 VRB5      30.09R
WILLOW GROVE   NOT AVBL
NORTH PHILA    MOSUNNY   84  57  39 W9        30.10R
PHILADELPHIA   PTSUNNY   84  59  42 SW10      30.09R
$$



USA.gov is the U.S. government's official web portal to all federal, state and local government web resources and services.